| time (UTC) | temp F | wind direction | speed MPH | gust MPH | rain 1hr in | rain 24hr in | rain mn in | humidity % | barometer mb |
| 20260505183603 | 53 | 33 | 4.0 | 11.0 | 0.00 | 0.00 | 0.00 | 80 | 1014.7 |
| 20260505182703 | 54 | 354 | 4.0 | 9.0 | 0.00 | 0.00 | 0.00 | 80 | 1014.6 |
| 20260505181803 | 54 | 287 | 3.0 | 8.0 | 0.00 | 0.00 | 0.00 | 80 | 1014.5 |
| 20260505180924 | 54 | 285 | 6.0 | 11.0 | 0.00 | 0.00 | 0.00 | 79 | 1014.5 |
| 20260505180003 | 54 | 286 | 6.0 | 13.0 | 0.00 | 0.00 | 0.00 | 81 | 1014.5 |
| 20260505175403 | 54 | 282 | 7.0 | 13.0 | 0.00 | 0.00 | 0.00 | 81 | 1014.5 |
| 20260505174524 | 54 | 291 | 8.0 | 15.0 | 0.00 | 0.00 | 0.00 | 81 | 1014.5 |
| 20260505173603 | 54 | 290 | 8.0 | 16.0 | 0.00 | 0.00 | 0.00 | 80 | 1014.6 |
| 20260505172724 | 55 | 283 | 8.0 | 15.0 | 0.00 | 0.00 | 0.00 | 80 | 1014.5 |
| 20260505171803 | 55 | 281 | 9.0 | 18.0 | 0.00 | 0.00 | 0.00 | 80 | 1014.7 |
| 20260505170903 | 56 | 290 | 8.0 | 18.0 | 0.00 | 0.00 | 0.00 | 80 | 1014.6 |
| 20260505170003 | 55 | 282 | 8.0 | 15.0 | 0.00 | 0.00 | 0.00 | 80 | 1014.7 |
| 20260505165403 | 54 | 287 | 9.0 | 16.0 | 0.00 | 0.00 | 0.00 | 80 | 1014.7 |
| 20260505164503 | 54 | 286 | 8.0 | 17.0 | 0.00 | 0.00 | 0.00 | 80 | 1014.7 |
| 20260505163603 | 55 | 277 | 9.0 | 17.0 | 0.00 | 0.00 | 0.00 | 80 | 1014.7 |
| 20260505162703 | 56 | 281 | 7.0 | 18.0 | 0.00 | 0.00 | 0.00 | 80 | 1014.9 |
| 20260505161803 | 58 | 281 | 7.0 | 14.0 | 0.00 | 0.00 | 0.00 | 80 | 1014.7 |
| 20260505160903 | 57 | 268 | 6.0 | 13.0 | 0.00 | 0.00 | 0.00 | 80 | 1014.7 |
| 20260505152703 | 56 | 267 | 6.0 | 15.0 | 0.00 | 0.00 | 0.00 | 80 | 1014.7 |
| 20260505151803 | 57 | 255 | 6.0 | 13.0 | 0.00 | 0.00 | 0.00 | 80 | 1014.7 |
| 20260505150903 | 59 | 266 | 6.0 | 14.0 | 0.00 | 0.00 | 0.00 | 78 | 1014.7 |
| 20260505124503 | 55 | 271 | 5.0 | 14.0 | 0.00 | 0.00 | 0.00 | 78 | 1015.0 |
| 20260505123603 | 55 | 288 | 4.0 | 10.0 | 0.00 | 0.00 | 0.00 | 78 | 1015.0 |
| 20260505122703 | 55 | 281 | 6.0 | 14.0 | 0.00 | 0.00 | 0.00 | 78 | 1015.2 |
| 20260505121803 | 56 | 276 | 6.0 | 12.0 | 0.00 | 0.00 | 0.00 | 75 | 1015.1 |
| 20260505120903 | 55 | 286 | 7.0 | 12.0 | 0.00 | 0.00 | 0.00 | 78 | 1015.2 |
| 20260505120024 | 55 | 267 | 5.0 | 12.0 | 0.00 | 0.00 | 0.00 | 78 | 1015.2 |
| 20260505115424 | 55 | 280 | 6.0 | 13.0 | 0.00 | 0.00 | 0.00 | 78 | 1015.1 |
| 20260505114524 | 55 | 278 | 6.0 | 13.0 | 0.00 | 0.00 | 0.00 | 77 | 1015.2 |
| 20260505113603 | 55 | 275 | 7.0 | 14.0 | 0.00 | 0.00 | 0.00 | 77 | 1015.2 |
| 20260505112703 | 55 | 266 | 6.0 | 12.0 | 0.00 | 0.00 | 0.00 | 77 | 1015.2 |
| 20260505111803 | 55 | 269 | 6.0 | 13.0 | 0.00 | 0.00 | 0.00 | 76 | 1015.1 |
| 20260505110924 | 55 | 278 | 6.0 | 14.0 | 0.00 | 0.00 | 0.00 | 74 | 1015.1 |
| 20260505101824 | 55 | 286 | 7.0 | 14.0 | 0.00 | 0.00 | 0.00 | 76 | 1015.1 |
| 20260505100924 | 55 | 283 | 8.0 | 14.0 | 0.00 | 0.00 | 0.00 | 75 | 1015.2 |
| 20260505100003 | 55 | 272 | 7.0 | 15.0 | 0.00 | 0.00 | 0.00 | 76 | 1015.2 |
| 20260505095403 | 55 | 262 | 7.0 | 15.0 | 0.00 | 0.00 | 0.00 | 76 | 1015.2 |
| 20260505094524 | 55 | 250 | 6.0 | 13.0 | 0.00 | 0.00 | 0.00 | 76 | 1015.1 |
| 20260505093603 | 54 | 267 | 6.0 | 12.0 | 0.00 | 0.00 | 0.00 | 76 | 1015.2 |
| 20260505092703 | 54 | 261 | 5.0 | 12.0 | 0.00 | 0.00 | 0.00 | 77 | 1015.1 |
| 20260505091803 | 54 | 245 | 4.0 | 10.0 | 0.00 | 0.00 | 0.00 | 77 | 1015.1 |
| 20260505090903 | 53 | 238 | 4.0 | 9.0 | 0.00 | 0.00 | 0.00 | 76 | 1015.1 |
| 20260505090003 | 53 | 251 | 5.0 | 12.0 | 0.00 | 0.00 | 0.00 | 76 | 1015.2 |
| 20260505085403 | 53 | 256 | 5.0 | 13.0 | 0.00 | 0.00 | 0.00 | 76 | 1015.2 |
| 20260505084503 | 52 | 239 | 4.0 | 11.0 | 0.00 | 0.00 | 0.00 | 76 | 1015.2 |
| 20260505083603 | 52 | 244 | 6.0 | 12.0 | 0.00 | 0.00 | 0.00 | 75 | 1015.3 |
| 20260505082703 | 51 | 282 | 7.0 | 14.0 | 0.00 | 0.00 | 0.00 | 76 | 1015.2 |
| 20260505081803 | 52 | 279 | 6.0 | 14.0 | 0.00 | 0.00 | 0.00 | 72 | 1015.2 |
| 20260505080924 | 52 | 261 | 4.0 | 9.0 | 0.00 | 0.00 | 0.00 | 76 | 1015.2 |
| 20260505080003 | 51 | 276 | 4.0 | 11.0 | 0.00 | 0.00 | 0.00 | 77 | 1015.1 |
| 20260505075403 | 51 | 276 | 3.0 | 11.0 | 0.00 | 0.00 | 0.00 | 77 | 1015.1 |
| 20260505074524 | 51 | 294 | 2.0 | 7.0 | 0.00 | 0.00 | 0.00 | 77 | 1015.1 |
| 20260505073603 | 50 | 280 | 1.0 | 4.0 | 0.00 | 0.00 | 0.00 | 77 | 1015.1 |
| 20260505072703 | 50 | 276 | 0.0 | 2.0 | 0.00 | 0.00 | 0.00 | 77 | 1015.1 |
| 20260505071824 | 50 | 292 | 3.0 | 8.0 | 0.00 | 0.00 | 0.00 | 75 | 1015.2 |
| 20260505070903 | 50 | 295 | 5.0 | 10.0 | 0.00 | 0.00 | 0.00 | 74 | 1015.4 |
| 20260505070003 | 50 | 302 | 8.0 | 15.0 | 0.00 | 0.00 | 0.00 | 76 | 1015.4 |
| 20260505065403 | 50 | 302 | 7.0 | 13.0 | 0.00 | 0.00 | 0.00 | 76 | 1015.3 |
| 20260505064503 | 50 | 299 | 5.0 | 10.0 | 0.00 | 0.00 | 0.00 | 77 | 1015.3 |
| 20260505063624 | 50 | 295 | 6.0 | 12.0 | 0.00 | 0.00 | 0.00 | 77 | 1015.3 |
| 20260505062724 | 50 | 290 | 6.0 | 11.0 | 0.00 | 0.00 | 0.00 | 77 | 1015.2 |
| 20260505061824 | 51 | 287 | 5.0 | 11.0 | 0.00 | 0.00 | 0.00 | 76 | 1015.2 |
| 20260505060903 | 51 | 284 | 5.0 | 12.0 | 0.00 | 0.00 | 0.00 | 74 | 1015.2 |
| 20260505060003 | 50 | 291 | 5.0 | 11.0 | 0.00 | 0.00 | 0.00 | 77 | 1015.1 |
| 20260505055403 | 50 | 294 | 4.0 | 12.0 | 0.00 | 0.00 | 0.00 | 78 | 1015.1 |
| 20260505054503 | 50 | 297 | 4.0 | 12.0 | 0.00 | 0.00 | 0.00 | 78 | 1014.9 |
| 20260505053603 | 50 | 287 | 4.0 | 11.0 | 0.00 | 0.00 | 0.00 | 78 | 1015.0 |
| 20260505052703 | 50 | 290 | 4.0 | 9.0 | 0.00 | 0.00 | 0.00 | 78 | 1015.0 |
| 20260505051803 | 50 | 292 | 4.0 | 9.0 | 0.00 | 0.00 | 0.00 | 78 | 1014.9 |
| 20260505050903 | 50 | 289 | 5.0 | 9.0 | 0.00 | 0.00 | 0.00 | 78 | 1014.9 |
| 20260505040924 | 48 | 281 | 3.0 | 8.0 | 0.00 | 0.00 | 0.00 | 79 | 1014.9 |
| 20260505040024 | 48 | 297 | 4.0 | 10.0 | 0.00 | 0.00 | 0.00 | 79 | 1014.8 |
| 20260505035424 | 48 | 296 | 4.0 | 9.0 | 0.00 | 0.00 | 0.00 | 80 | 1014.7 |
| 20260505034503 | 48 | 295 | 4.0 | 8.0 | 0.00 | 0.00 | 0.00 | 79 | 1014.7 |
| 20260505033624 | 48 | 287 | 4.0 | 8.0 | 0.00 | 0.00 | 0.00 | 79 | 1014.9 |
| 20260505032703 | 48 | 285 | 4.0 | 10.0 | 0.00 | 0.00 | 0.00 | 79 | 1014.9 |
| 20260505031803 | 49 | 282 | 5.0 | 12.0 | 0.00 | 0.00 | 0.00 | 78 | 1014.9 |
| 20260505030903 | 49 | 278 | 6.0 | 11.0 | 0.00 | 0.00 | 0.00 | 79 | 1014.9 |
| 20260505030003 | 49 | 283 | 5.0 | 12.0 | 0.00 | 0.00 | 0.00 | 79 | 1014.8 |
| 20260505025403 | 49 | 278 | 5.0 | 12.0 | 0.00 | 0.00 | 0.00 | 79 | 1014.8 |
| 20260505024524 | 49 | 279 | 6.0 | 12.0 | 0.00 | 0.00 | 0.00 | 79 | 1014.9 |
| 20260505023603 | 49 | 283 | 5.0 | 11.0 | 0.00 | 0.00 | 0.00 | 79 | 1015.0 |
| 20260505022703 | 49 | 277 | 5.0 | 13.0 | 0.00 | 0.00 | 0.00 | 79 | 1015.1 |
| 20260505021803 | 50 | 280 | 5.0 | 10.0 | 0.00 | 0.00 | 0.00 | 79 | 1015.1 |
| 20260505020903 | 50 | 282 | 6.0 | 10.0 | 0.00 | 0.00 | 0.00 | 77 | 1015.2 |
| 20260505020003 | 49 | 280 | 5.0 | 10.0 | 0.00 | 0.00 | 0.00 | 79 | 1015.2 |
| 20260505015424 | 49 | 284 | 5.0 | 12.0 | 0.00 | 0.00 | 0.00 | 80 | 1015.2 |
| 20260505014503 | 49 | 284 | 5.0 | 10.0 | 0.00 | 0.00 | 0.00 | 80 | 1015.2 |
| 20260505013603 | 49 | 271 | 6.0 | 13.0 | 0.00 | 0.00 | 0.00 | 80 | 1015.5 |
| 20260505012703 | 50 | 256 | 4.0 | 10.0 | 0.00 | 0.00 | 0.00 | 80 | 1015.2 |
| 20260505011824 | 50 | 245 | 4.0 | 9.0 | 0.00 | 0.00 | 0.00 | 80 | 1015.3 |
| 20260505010903 | 50 | 256 | 4.0 | 10.0 | 0.00 | 0.00 | 0.00 | 80 | 1015.5 |
| 20260505010003 | 50 | 257 | 4.0 | 10.0 | 0.00 | 0.00 | 0.00 | 80 | 1015.5 |
| 20260505005403 | 50 | 255 | 3.0 | 10.0 | 0.00 | 0.00 | 0.00 | 80 | 1015.6 |
| 20260505004503 | 50 | 247 | 4.0 | 10.0 | 0.00 | 0.00 | 0.00 | 80 | 1015.4 |
| 20260505003603 | 50 | 238 | 3.0 | 11.0 | 0.00 | 0.00 | 0.00 | 80 | 1015.5 |
| 20260505002703 | 50 | 247 | 3.0 | 11.0 | 0.00 | 0.00 | 0.00 | 80 | 1015.6 |
| 20260505001803 | 51 | 246 | 4.0 | 9.0 | 0.00 | 0.00 | 0.00 | 76 | 1015.7 |
| 20260505000924 | 50 | 241 | 4.0 | 11.0 | 0.00 | 0.00 | 0.00 | 80 | 1015.6 |
| 20260505000003 | 50 | 247 | 4.0 | 9.0 | 0.00 | 0.00 | 0.00 | 81 | 1015.8 |
| 20260504235424 | 50 | 241 | 4.0 | 9.0 | 0.00 | 0.00 | 0.00 | 81 | 1015.8 |
| 20260504234524 | 50 | 251 | 3.0 | 8.0 | 0.00 | 0.00 | 0.00 | 81 | 1015.8 |
| 20260504233603 | 50 | 256 | 3.0 | 8.0 | 0.00 | 0.00 | 0.00 | 81 | 1015.9 |
| 20260504232703 | 50 | 254 | 3.0 | 7.0 | 0.00 | 0.00 | 0.00 | 81 | 1015.8 |
| 20260504231803 | 52 | 253 | 3.0 | 9.0 | 0.00 | 0.00 | 0.00 | 79 | 1015.7 |
| 20260504230903 | 51 | 236 | 4.0 | 9.0 | 0.00 | 0.00 | 0.00 | 81 | 1015.7 |
| 20260504230004 | 51 | 236 | 3.0 | 8.0 | 0.00 | 0.00 | 0.00 | 81 | 1015.7 |
| 20260504225403 | 51 | 238 | 4.0 | 10.0 | 0.00 | 0.00 | 0.00 | 81 | 1015.7 |
| 20260504224503 | 51 | 250 | 3.0 | 9.0 | 0.00 | 0.00 | 0.00 | 81 | 1015.7 |
| 20260504223603 | 51 | 257 | 3.0 | 8.0 | 0.00 | 0.00 | 0.00 | 81 | 1015.9 |
| 20260504222703 | 51 | 250 | 3.0 | 7.0 | 0.00 | 0.00 | 0.00 | 81 | 1015.9 |
| 20260504221803 | 52 | 250 | 3.0 | 8.0 | 0.00 | 0.00 | 0.00 | 81 | 1016.0 |
| 20260504220903 | 51 | 246 | 3.0 | 7.0 | 0.00 | 0.00 | 0.00 | 78 | 1016.0 |
| 20260504220003 | 51 | 246 | 3.0 | 8.0 | 0.00 | 0.00 | 0.00 | 81 | 1015.9 |
| 20260504215403 | 51 | 241 | 3.0 | 8.0 | 0.00 | 0.00 | 0.00 | 81 | 1016.0 |
| 20260504214503 | 51 | 246 | 3.0 | 7.0 | 0.00 | 0.00 | 0.00 | 81 | 1016.1 |
| 20260504213603 | 51 | 252 | 3.0 | 7.0 | 0.00 | 0.00 | 0.00 | 81 | 1016.1 |
| 20260504212703 | 51 | 251 | 3.0 | 8.0 | 0.00 | 0.00 | 0.00 | 81 | 1016.1 |
| 20260504211824 | 51 | 249 | 2.0 | 8.0 | 0.00 | 0.00 | 0.00 | 81 | 1016.1 |
| 20260504210903 | 52 | 260 | 3.0 | 8.0 | 0.00 | 0.00 | 0.00 | 81 | 1016.1 |
| 20260504210003 | 51 | 249 | 3.0 | 8.0 | 0.00 | 0.00 | 0.00 | 81 | 1016.1 |
| 20260504205403 | 51 | 251 | 3.0 | 7.0 | 0.00 | 0.00 | 0.00 | 81 | 1016.2 |
| 20260504204503 | 51 | 243 | 3.0 | 6.0 | 0.00 | 0.00 | 0.00 | 81 | 1016.2 |
| 20260504203603 | 51 | 246 | 3.0 | 7.0 | 0.00 | 0.00 | 0.00 | 81 | 1016.2 |
| 20260504202703 | 51 | 238 | 3.0 | 9.0 | 0.00 | 0.00 | 0.00 | 81 | 1016.2 |
| 20260504201803 | 52 | 252 | 3.0 | 10.0 | 0.00 | 0.00 | 0.00 | 77 | 1016.2 |
| 20260504200903 | 52 | 255 | 3.0 | 8.0 | 0.00 | 0.00 | 0.00 | 81 | 1016.0 |
| 20260504200003 | 52 | 254 | 3.0 | 8.0 | 0.00 | 0.00 | 0.00 | 81 | 1015.9 |
| 20260504195424 | 52 | 252 | 3.0 | 9.0 | 0.00 | 0.00 | 0.00 | 81 | 1015.9 |
| 20260504194503 | 52 | 259 | 3.0 | 9.0 | 0.00 | 0.00 | 0.00 | 81 | 1015.9 |
| 20260504193603 | 52 | 272 | 3.0 | 10.0 | 0.00 | 0.00 | 0.00 | 80 | 1015.9 |
| 20260504192724 | 52 | 255 | 3.0 | 8.0 | 0.00 | 0.00 | 0.00 | 80 | 1015.8 |
| 20260504191803 | 52 | 244 | 4.0 | 9.0 | 0.00 | 0.00 | 0.00 | 80 | 1015.8 |
| 20260504190903 | 53 | 269 | 3.0 | 8.0 | 0.00 | 0.00 | 0.00 | 80 | 1015.8 |
| 20260504190003 | 53 | 251 | 3.0 | 9.0 | 0.00 | 0.00 | 0.00 | 80 | 1015.9 |
| 20260504185403 | 53 | 267 | 3.0 | 9.0 | 0.00 | 0.00 | 0.00 | 80 | 1015.9 |
| 20260504184503 | 53 | 270 | 4.0 | 10.0 | 0.00 | 0.00 | 0.00 | 80 | 1015.9 |